Nissan Maru — JG5485 — position and weather

sailwx.info

Track history (hours):
 
Tides and Currents Weather Stations Pressure Air Temp Water Temp Dewpoint Dewpoint Depression Visibility Wind Speed Wind Dir Waves Ship Positions

Nissan Maru

Last reported at 2014-Jul-28 03:31 UTC. Time now 2014-Jul-28 04:14 UTC.
Position N 35°29' E 139°44'.

Length 108 m; draft 7.2 m.

Type: Cargo ship. MMSI: 431400593.

Date/timePositionNaut miles runAvg speedWind from/ knotsBaromVisibWave heightAir tempDewpointWater temp
2014-Jul-28 03:31N 35°29' E 139°44'0 0.0
2014-Jul-28 02:31N 35°29' E 139°44'0 0.0
2014-Jul-28 01:31N 35°29' E 139°44'0 0.0
2014-Jul-28 00:31N 35°29' E 139°44'0 0.0
2014-Jul-27 23:31N 35°29' E 139°44'1 1.4
2014-Jul-27 22:34N 35°28' E 139°46'0 0.3
2014-Jul-27 21:34N 35°28' E 139°45'1 0.7
2014-Jul-27 20:34N 35°27' E 139°45'5 4.6
2014-Jul-27 19:33N 35°23' E 139°45'0 0.1
2014-Jul-27 18:33N 35°23' E 139°45'4 4.5
2014-Jul-27 17:34N 35°18' E 139°44'1211.7
2014-Jul-27 16:34N 35°07' E 139°45'1211.6
2014-Jul-27 15:33N 34°59' E 139°34'  
2014-Jul-25 05:23N 34°51' E 139°13'911.0
2014-Jul-25 04:32N 34°56' E 139°22'1110.9
2014-Jul-25 03:33N 35°02' E 139°33'1312.7
2014-Jul-25 02:33N 35°11' E 139°45'1111.5
2014-Jul-25 01:33N 35°22' E 139°42'1313.0
2014-Jul-25 00:34N 35°31' E 139°53'1111.5
2014-Jul-24 23:33N 35°35' E 140°06'0 0.3
2014-Jul-24 22:29N 35°35' E 140°07'0 0.0
2014-Jul-24 21:32N 35°35' E 140°07'0 0.0
2014-Jul-24 20:26N 35°35' E 140°07'0 0.0
2014-Jul-24 19:32N 35°35' E 140°07'0 0.0
2014-Jul-24 18:26N 35°35' E 140°07'0 0.0
2014-Jul-24 17:29N 35°35' E 140°07'0 0.0
2014-Jul-24 16:32N 35°35' E 140°07'0 0.0
2014-Jul-24 15:32N 35°35' E 140°07'0 0.0
2014-Jul-24 14:23N 35°35' E 140°07'0 0.0
2014-Jul-24 13:32N 35°35' E 140°07'0 0.0
2014-Jul-24 12:29N 35°35' E 140°07'0 0.0
2014-Jul-24 11:29N 35°35' E 140°07'0 0.0
2014-Jul-24 10:32N 35°35' E 140°07'0 0.0
2014-Jul-24 09:32N 35°35' E 140°07'0 0.0
2014-Jul-24 08:32N 35°35' E 140°07'0 0.0
2014-Jul-24 07:29N 35°35' E 140°07'0 0.0
2014-Jul-24 06:32N 35°35' E 140°07'0 0.0
2014-Jul-24 05:32N 35°35' E 140°07'3 3.4
2014-Jul-24 04:33N 35°35' E 140°03'1 1.2
2014-Jul-24 03:33N 35°34' E 140°02'0 0.0
2014-Jul-24 02:33N 35°34' E 140°02'0 0.0
2014-Jul-24 01:33N 35°34' E 140°02'0 0.0
2014-Jul-24 00:30N 35°34' E 140°02'0 0.0
2014-Jul-23 23:33N 35°34' E 140°02'0 0.0
2014-Jul-23 22:33N 35°34' E 140°02'0 0.0
2014-Jul-23 21:33N 35°34' E 140°02'0 0.0
2014-Jul-23 20:30N 35°34' E 140°02'7 7.5
2014-Jul-23 19:33N 35°30' E 139°55'8 8.4
2014-Jul-23 18:33N 35°29' E 139°44'0 0.0
2014-Jul-23 17:31N 35°29' E 139°44'0 0.0
2014-Jul-23 16:31N 35°29' E 139°44'0 0.0
2014-Jul-23 15:31N 35°29' E 139°44'0 0.0
2014-Jul-23 14:31N 35°29' E 139°44'0 0.0
2014-Jul-23 13:31N 35°29' E 139°44'0 0.0
2014-Jul-23 12:31N 35°29' E 139°44'0 0.0
2014-Jul-23 11:31N 35°29' E 139°44'0 0.0
2014-Jul-23 10:31N 35°29' E 139°44'0 0.0
2014-Jul-23 09:31N 35°29' E 139°44'0 0.0
2014-Jul-23 08:31N 35°29' E 139°44'0 0.0
2014-Jul-23 07:31N 35°29' E 139°44'0 0.0
2014-Jul-23 06:31N 35°29' E 139°44'0 0.0
2014-Jul-23 05:31N 35°29' E 139°44'0 0.0
2014-Jul-23 04:31N 35°29' E 139°44'0 0.0
2014-Jul-23 03:31N 35°29' E 139°44'0 0.0
2014-Jul-23 02:31N 35°29' E 139°44'0 0.0
2014-Jul-23 01:31N 35°29' E 139°44'0 0.0
2014-Jul-23 00:31N 35°29' E 139°44'0 0.0
2014-Jul-22 23:31N 35°29' E 139°44'0 0.0
2014-Jul-22 22:31N 35°29' E 139°44'0 0.0
2014-Jul-22 21:31N 35°29' E 139°44'0 0.0
2014-Jul-22 20:31N 35°29' E 139°44'0 0.0
2014-Jul-22 19:31N 35°29' E 139°44'0 0.0
2014-Jul-22 18:31N 35°29' E 139°44'0 0.0
2014-Jul-22 17:31N 35°29' E 139°44'0 0.0
2014-Jul-22 16:31N 35°29' E 139°44'0 0.0
2014-Jul-22 15:31N 35°29' E 139°44'0 0.0
2014-Jul-22 14:31N 35°29' E 139°44'0 0.0
2014-Jul-22 13:31N 35°29' E 139°44'0 0.0
2014-Jul-22 12:31N 35°29' E 139°44'0 0.0
2014-Jul-22 11:31N 35°29' E 139°44'0 0.0
2014-Jul-22 10:28N 35°29' E 139°44'0 0.0
2014-Jul-22 09:31N 35°29' E 139°44'0 0.0
2014-Jul-22 08:31N 35°29' E 139°44'0 0.0
2014-Jul-22 07:31N 35°29' E 139°44'0 0.0
2014-Jul-22 06:31N 35°29' E 139°44'0 0.0
2014-Jul-22 05:31N 35°29' E 139°44'0 0.0
2014-Jul-22 04:31N 35°29' E 139°44'0 0.0
2014-Jul-22 03:31N 35°29' E 139°44'0 0.0
2014-Jul-22 02:31N 35°29' E 139°44'0 0.0
2014-Jul-22 01:31N 35°29' E 139°44'0 0.0
2014-Jul-22 00:34N 35°29' E 139°44'5 4.7
2014-Jul-21 23:34N 35°25' E 139°46'1111.3
2014-Jul-21 22:34N 35°13' E 139°47'1212.0
2014-Jul-21 21:34N 35°02' E 139°41'1313.3
2014-Jul-21 20:33N 34°55' E 139°28'313.5
2014-Jul-21 20:18N 34°52' E 139°25'  
2014-Jul-18 19:30N 34°60' E 139°29'1213.3
2014-Jul-18 18:34N 35°07' E 139°42'1212.2
2014-Jul-18 17:33N 35°19' E 139°43'1010.3
2014-Jul-18 16:33N 35°29' E 139°44'0 0.1
2014-Jul-18 15:33N 35°29' E 139°44'0 0.0
2014-Jul-18 14:33N 35°29' E 139°44'0 0.0
2014-Jul-18 13:33N 35°29' E 139°44'0 0.0
2014-Jul-18 12:33N 35°29' E 139°44'0 0.0
2014-Jul-18 11:33N 35°29' E 139°44'0 0.0
2014-Jul-18 10:33N 35°29' E 139°44'0 0.0
2014-Jul-18 09:33N 35°29' E 139°44'0 0.0
2014-Jul-18 08:33N 35°29' E 139°44'0 0.0
2014-Jul-18 07:33N 35°29' E 139°44'0 0.0
2014-Jul-18 06:33N 35°29' E 139°44'0 0.0
2014-Jul-18 05:33N 35°29' E 139°44'0 0.0
2014-Jul-18 04:33N 35°29' E 139°44'0 0.0
2014-Jul-18 03:33N 35°29' E 139°44'  
Track history (hours):
 
Tides and Currents Weather Stations Pressure Air Temp Water Temp Dewpoint Dewpoint Depression Visibility Wind Speed Wind Dir Waves Ship Positions

Nissan Maru

Last reported at 2014-Jul-28 03:31 UTC. Time now 2014-Jul-28 04:14 UTC.
Position N 35°29' E 139°44'.

Length 108 m; draft 7.2 m.

Type: Cargo ship. MMSI: 431400593.

Date/timePositionNaut miles runAvg speedWind from/ knotsBaromVisibWave heightAir tempDewpointWater temp
2014-Jul-28 03:31N 35°29' E 139°44'0 0.0
2014-Jul-28 02:31N 35°29' E 139°44'0 0.0
2014-Jul-28 01:31N 35°29' E 139°44'0 0.0
2014-Jul-28 00:31N 35°29' E 139°44'0 0.0
2014-Jul-27 23:31N 35°29' E 139°44'1 1.4
2014-Jul-27 22:34N 35°28' E 139°46'0 0.3
2014-Jul-27 21:34N 35°28' E 139°45'1 0.7
2014-Jul-27 20:34N 35°27' E 139°45'5 4.6
2014-Jul-27 19:33N 35°23' E 139°45'0 0.1
2014-Jul-27 18:33N 35°23' E 139°45'4 4.5
2014-Jul-27 17:34N 35°18' E 139°44'1211.7
2014-Jul-27 16:34N 35°07' E 139°45'1211.6
2014-Jul-27 15:33N 34°59' E 139°34'  
2014-Jul-25 05:23N 34°51' E 139°13'911.0
2014-Jul-25 04:32N 34°56' E 139°22'1110.9
2014-Jul-25 03:33N 35°02' E 139°33'1312.7
2014-Jul-25 02:33N 35°11' E 139°45'1111.5
2014-Jul-25 01:33N 35°22' E 139°42'1313.0
2014-Jul-25 00:34N 35°31' E 139°53'1111.5
2014-Jul-24 23:33N 35°35' E 140°06'0 0.3
2014-Jul-24 22:29N 35°35' E 140°07'0 0.0
2014-Jul-24 21:32N 35°35' E 140°07'0 0.0
2014-Jul-24 20:26N 35°35' E 140°07'0 0.0
2014-Jul-24 19:32N 35°35' E 140°07'0 0.0
2014-Jul-24 18:26N 35°35' E 140°07'0 0.0
2014-Jul-24 17:29N 35°35' E 140°07'0 0.0
2014-Jul-24 16:32N 35°35' E 140°07'0 0.0
2014-Jul-24 15:32N 35°35' E 140°07'0 0.0
2014-Jul-24 14:23N 35°35' E 140°07'0 0.0
2014-Jul-24 13:32N 35°35' E 140°07'0 0.0
2014-Jul-24 12:29N 35°35' E 140°07'0 0.0
2014-Jul-24 11:29N 35°35' E 140°07'0 0.0
2014-Jul-24 10:32N 35°35' E 140°07'0 0.0
2014-Jul-24 09:32N 35°35' E 140°07'0 0.0
2014-Jul-24 08:32N 35°35' E 140°07'0 0.0
2014-Jul-24 07:29N 35°35' E 140°07'0 0.0
2014-Jul-24 06:32N 35°35' E 140°07'0 0.0
2014-Jul-24 05:32N 35°35' E 140°07'3 3.4
2014-Jul-24 04:33N 35°35' E 140°03'1 1.2
2014-Jul-24 03:33N 35°34' E 140°02'0 0.0
2014-Jul-24 02:33N 35°34' E 140°02'0 0.0
2014-Jul-24 01:33N 35°34' E 140°02'0 0.0
2014-Jul-24 00:30N 35°34' E 140°02'0 0.0
2014-Jul-23 23:33N 35°34' E 140°02'0 0.0
2014-Jul-23 22:33N 35°34' E 140°02'0 0.0
2014-Jul-23 21:33N 35°34' E 140°02'0 0.0
2014-Jul-23 20:30N 35°34' E 140°02'7 7.5
2014-Jul-23 19:33N 35°30' E 139°55'8 8.4
2014-Jul-23 18:33N 35°29' E 139°44'0 0.0
2014-Jul-23 17:31N 35°29' E 139°44'0 0.0
2014-Jul-23 16:31N 35°29' E 139°44'0 0.0
2014-Jul-23 15:31N 35°29' E 139°44'0 0.0
2014-Jul-23 14:31N 35°29' E 139°44'0 0.0
2014-Jul-23 13:31N 35°29' E 139°44'0 0.0
2014-Jul-23 12:31N 35°29' E 139°44'0 0.0
2014-Jul-23 11:31N 35°29' E 139°44'0 0.0
2014-Jul-23 10:31N 35°29' E 139°44'0 0.0
2014-Jul-23 09:31N 35°29' E 139°44'0 0.0
2014-Jul-23 08:31N 35°29' E 139°44'0 0.0
2014-Jul-23 07:31N 35°29' E 139°44'0 0.0
2014-Jul-23 06:31N 35°29' E 139°44'0 0.0
2014-Jul-23 05:31N 35°29' E 139°44'0 0.0
2014-Jul-23 04:31N 35°29' E 139°44'0 0.0
2014-Jul-23 03:31N 35°29' E 139°44'0 0.0
2014-Jul-23 02:31N 35°29' E 139°44'0 0.0
2014-Jul-23 01:31N 35°29' E 139°44'0 0.0
2014-Jul-23 00:31N 35°29' E 139°44'0 0.0
2014-Jul-22 23:31N 35°29' E 139°44'0 0.0
2014-Jul-22 22:31N 35°29' E 139°44'0 0.0
2014-Jul-22 21:31N 35°29' E 139°44'0 0.0
2014-Jul-22 20:31N 35°29' E 139°44'0 0.0
2014-Jul-22 19:31N 35°29' E 139°44'0 0.0
2014-Jul-22 18:31N 35°29' E 139°44'0 0.0
2014-Jul-22 17:31N 35°29' E 139°44'0 0.0
2014-Jul-22 16:31N 35°29' E 139°44'0 0.0
2014-Jul-22 15:31N 35°29' E 139°44'0 0.0
2014-Jul-22 14:31N 35°29' E 139°44'0 0.0
2014-Jul-22 13:31N 35°29' E 139°44'0 0.0
2014-Jul-22 12:31N 35°29' E 139°44'0 0.0
2014-Jul-22 11:31N 35°29' E 139°44'0 0.0
2014-Jul-22 10:28N 35°29' E 139°44'0 0.0
2014-Jul-22 09:31N 35°29' E 139°44'0 0.0
2014-Jul-22 08:31N 35°29' E 139°44'0 0.0
2014-Jul-22 07:31N 35°29' E 139°44'0 0.0
2014-Jul-22 06:31N 35°29' E 139°44'0 0.0
2014-Jul-22 05:31N 35°29' E 139°44'0 0.0
2014-Jul-22 04:31N 35°29' E 139°44'0 0.0
2014-Jul-22 03:31N 35°29' E 139°44'0 0.0
2014-Jul-22 02:31N 35°29' E 139°44'0 0.0
2014-Jul-22 01:31N 35°29' E 139°44'0 0.0
2014-Jul-22 00:34N 35°29' E 139°44'5 4.7
2014-Jul-21 23:34N 35°25' E 139°46'1111.3
2014-Jul-21 22:34N 35°13' E 139°47'1212.0
2014-Jul-21 21:34N 35°02' E 139°41'1313.3
2014-Jul-21 20:33N 34°55' E 139°28'313.5
2014-Jul-21 20:18N 34°52' E 139°25'  
2014-Jul-18 19:30N 34°60' E 139°29'1213.3
2014-Jul-18 18:34N 35°07' E 139°42'1212.2
2014-Jul-18 17:33N 35°19' E 139°43'1010.3
2014-Jul-18 16:33N 35°29' E 139°44'0 0.1
2014-Jul-18 15:33N 35°29' E 139°44'0 0.0
2014-Jul-18 14:33N 35°29' E 139°44'0 0.0
2014-Jul-18 13:33N 35°29' E 139°44'0 0.0
2014-Jul-18 12:33N 35°29' E 139°44'0 0.0
2014-Jul-18 11:33N 35°29' E 139°44'0 0.0
2014-Jul-18 10:33N 35°29' E 139°44'0 0.0
2014-Jul-18 09:33N 35°29' E 139°44'0 0.0
2014-Jul-18 08:33N 35°29' E 139°44'0 0.0
2014-Jul-18 07:33N 35°29' E 139°44'0 0.0
2014-Jul-18 06:33N 35°29' E 139°44'0 0.0
2014-Jul-18 05:33N 35°29' E 139°44'0 0.0
2014-Jul-18 04:33N 35°29' E 139°44'0 0.0
2014-Jul-18 03:33N 35°29' E 139°44'  

Dump ship's entire track history